This demonstration page uses our WeatherBlox Daily Observations layout. Learn more.

Left ArrowRight Arrow

44.31136, -96.79839

Hourly Observations for August 17, 2022

Temp ( °F °C ) Dew Point ( °F °C ) Humidity (%) Winds ( mph kmh ) Pressure ( in mb ) Visibility ( mi km ) Precip ( " mm )
1:56 am 01:56 Clear 60 15.6 60 15.6 100 100 Calm 30.18 1022 10 16 0.00 0.00
2:56 am 02:56 Clear 60 15.6 60 15.6 100 100 SSE 5 7 30.18 1022 10 16 0.00 0.00
3:56 am 03:56 Clear 59 15 59 15 100 100 SE 5 7 30.19 1022 9 14 0.00 0.00
4:56 am 04:56 Clear 57 13.9 57 13.9 100 100 Calm 30.19 1022 10 16 0.00 0.00
5:56 am 05:56 Clear 58 14.4 58 14.4 100 100 Calm 30.19 1022 8 13 0.00 0.00
6:56 am 06:56 Sunny with Mist and Fog 60 15.6 60 15.6 100 100 ESE 3 6 30.20 1023 6 10 0.00 0.00
7:56 am 07:56 Sunny 66 18.9 60 15.6 81 81 S 3 6 30.21 1023 8 13 0.00 0.00
8:56 am 08:56 Sunny 71 21.7 61 16.1 70 70 S 3 6 30.22 1023 10 16 0.00 0.00
9:56 am 09:56 Sunny 75 23.9 61 16.1 62 62 SW 5 7 30.21 1023 10 16 0.00 0.00
10:56 am 10:56 Mostly Sunny 78 25.6 62 16.7 58 58 SW 7 11 30.20 1023 10 16 0.00 0.00
11:22 am 11:22 Mostly Cloudy 79 26 61 16 54 54 SSW 10 17 30.10 1019 10 16 0.00 0.00
11:51 am 11:51 Mostly Cloudy 77 25 63 17 61 61 SW 6 9 30.10 1019 10 16 0.00 0.00
11:56 am 11:56 Mostly Cloudy 78 25.6 61 16.1 56 56 SSW 12 19 30.19 1022 10 16 0.00 0.00
12:56 pm 12:56 Mostly Cloudy 78 25.6 63 17.2 60 60 W 8 13 30.19 1022 10 16 0.00 0.00
1:56 pm 13:56 Cloudy 81 27.2 61 16.1 51 51 WSW 10 17 30.17 1022 10 16 0.00 0.00
2:56 pm 14:56 Partly Cloudy 82 27.8 62 16.7 51 51 S 9 15 30.15 1021 10 16 0.00 0.00
3:56 pm 15:56 Partly Cloudy 84 28.9 62 16.7 48 48 S 12 19 30.14 1021 10 16 0.00 0.00
4:56 pm 16:56 Partly Cloudy 84 28.9 63 17.2 49 49 SSW 14 22 30.12 1020 10 16 0.00 0.00
5:56 pm 17:56 Mostly Sunny 84 28.9 63 17.2 49 49 SSW 14 22 30.11 1020 10 16 0.00 0.00
6:56 pm 18:56 Sunny 82 27.8 63 17.2 53 53 SSW 10 17 30.09 1019 10 16 0.00 0.00
7:56 pm 19:56 Sunny 77 25 65 18.3 66 66 S 6 9 30.09 1019 10 16 0.00 0.00
8:56 pm 20:56 Clear 72 22.2 64 17.8 76 76 S 7 11 30.09 1019 10 16 0.00 0.00
9:56 pm 21:56 Clear 70 21.1 65 18.3 84 84 S 9 15 30.08 1019 10 16 0.00 0.00
10:56 pm 22:56 Clear 69 20.6 65 18.3 87 87 S 8 13 30.07 1018 10 16 0.00 0.00
11:56 pm 23:56 Clear 69 20.6 65 18.3 87 87 S 9 15 30.06 1018 10 16 0.00 0.00

Powered by AerisWeather